Time,TemperatureF,DewpointF,PressureIn,WindDirection,WindDirectionDegrees,WindSpeedMPH,WindSpeedGustMPH,Humidity,HourlyPrecipIn,Conditions,Clouds,dailyrainin,SolarRadiationWatts/m^2,SoftwareType,DateUTC
2013-12-11 00:02:00,43.6,24.0,30.21,East,90,0.0,1.0,47,0.00,,,0.00,0,weatherlink.com 1.10,2013-12-11 08:02:00,
2013-12-11 00:17:00,44.9,25.0,30.20,NE,35,0.0,3.0,46,0.00,,,0.00,0,weatherlink.com 1.10,2013-12-11 08:17:00,
2013-12-11 00:32:00,45.5,26.0,30.20,NE,42,0.0,2.0,46,0.00,,,0.00,0,weatherlink.com 1.10,2013-12-11 08:32:00,
2013-12-11 00:47:00,44.9,26.0,30.20,NE,46,0.0,1.0,47,0.00,,,0.00,0,weatherlink.com 1.10,2013-12-11 08:47:00,
2013-12-11 01:03:00,44.4,26.0,30.20,SE,134,0.0,1.0,48,0.00,,,0.00,0,weatherlink.com 1.10,2013-12-11 09:03:00,
2013-12-11 01:18:00,44.0,26.0,30.20,SE,135,0.0,1.0,49,0.00,,,0.00,0,weatherlink.com 1.10,2013-12-11 09:18:00,
2013-12-11 01:33:00,44.3,26.0,30.20,WSW,247,0.0,2.0,49,0.00,,,0.00,0,weatherlink.com 1.10,2013-12-11 09:33:00,
2013-12-11 01:48:00,44.3,26.0,30.20,NNE,32,2.0,2.0,49,0.00,,,0.00,0,weatherlink.com 1.10,2013-12-11 09:48:00,
2013-12-11 02:18:00,44.6,27.0,30.21,ENE,57,2.0,3.0,50,0.00,,,0.00,0,weatherlink.com 1.10,2013-12-11 10:18:00,
2013-12-11 02:33:00,44.1,26.0,30.20,WSW,255,1.0,4.0,50,0.00,,,0.00,0,weatherlink.com 1.10,2013-12-11 10:33:00,
2013-12-11 02:48:00,44.0,26.0,30.21,ESE,116,1.0,1.0,49,0.00,,,0.00,0,weatherlink.com 1.10,2013-12-11 10:48:00,
2013-12-11 03:03:00,43.9,25.0,30.21,ESE,105,0.0,1.0,48,0.00,,,0.00,0,weatherlink.com 1.10,2013-12-11 11:03:00,
2013-12-11 03:18:00,43.3,24.0,30.21,NE,40,0.0,4.0,47,0.00,,,0.00,0,weatherlink.com 1.10,2013-12-11 11:18:00,
2013-12-11 03:33:00,43.6,24.0,30.21,NNW,348,0.0,1.0,47,0.00,,,0.00,0,weatherlink.com 1.10,2013-12-11 11:33:00,
2013-12-11 03:48:00,43.8,25.0,30.20,ESE,107,3.0,3.0,47,0.00,,,0.00,0,weatherlink.com 1.10,2013-12-11 11:48:00,
2013-12-11 04:03:00,43.8,25.0,30.20,ESE,115,0.0,3.0,47,0.00,,,0.00,0,weatherlink.com 1.10,2013-12-11 12:03:00,
2013-12-11 04:18:00,43.6,25.0,30.20,East,86,1.0,2.0,48,0.00,,,0.00,0,weatherlink.com 1.10,2013-12-11 12:18:00,
2013-12-11 04:33:00,44.0,26.0,30.20,East,96,0.0,4.0,49,0.00,,,0.00,0,weatherlink.com 1.10,2013-12-11 12:33:00,
2013-12-11 04:48:00,43.2,27.0,30.20,ENE,67,0.0,2.0,53,0.00,,,0.00,0,weatherlink.com 1.10,2013-12-11 12:48:00,
2013-12-11 05:03:00,42.6,27.0,30.20,NNE,17,0.0,3.0,55,0.00,,,0.00,0,weatherlink.com 1.10,2013-12-11 13:03:00,
2013-12-11 05:18:00,42.2,27.0,30.20,NNE,27,0.0,1.0,55,0.00,,,0.00,0,weatherlink.com 1.10,2013-12-11 13:18:00,
2013-12-11 05:33:00,41.3,27.0,30.20,ESE,107,0.0,4.0,58,0.00,,,0.00,0,weatherlink.com 1.10,2013-12-11 13:33:00,
2013-12-11 05:48:00,41.3,29.0,30.20,NE,42,4.0,5.0,62,0.00,,,0.00,0,weatherlink.com 1.10,2013-12-11 13:48:00,
2013-12-11 06:03:00,41.2,29.0,30.20,ENE,57,0.0,3.0,63,0.00,,,0.00,0,weatherlink.com 1.10,2013-12-11 14:03:00,
2013-12-11 06:18:00,41.1,30.0,30.20,NE,50,2.0,6.0,64,0.00,,,0.00,0,weatherlink.com 1.10,2013-12-11 14:18:00,
2013-12-11 06:33:00,41.1,30.0,30.20,NNE,24,5.0,6.0,65,0.00,,,0.00,0,weatherlink.com 1.10,2013-12-11 14:33:00,
2013-12-11 06:48:00,41.1,30.0,30.21,NE,40,6.0,8.0,66,0.00,,,0.00,0,weatherlink.com 1.10,2013-12-11 14:48:00,
2013-12-11 07:03:00,40.7,31.0,30.21,NNW,335,2.0,7.0,68,0.00,,,0.00,0,weatherlink.com 1.10,2013-12-11 15:03:00,
2013-12-11 07:18:00,40.5,31.0,30.21,NE,42,5.0,13.0,69,0.00,,,0.00,0,weatherlink.com 1.10,2013-12-11 15:18:00,
2013-12-11 07:33:00,40.6,31.0,30.21,NNW,338,4.0,9.0,69,0.00,,,0.00,0,weatherlink.com 1.10,2013-12-11 15:33:00,
2013-12-11 07:48:00,40.8,31.0,30.21,NE,50,6.0,9.0,68,0.00,,,0.00,0,weatherlink.com 1.10,2013-12-11 15:48:00,
2013-12-11 08:03:00,42.0,31.0,30.22,ENE,59,9.0,10.0,66,0.00,,,0.00,0,weatherlink.com 1.10,2013-12-11 16:03:00,
2013-12-11 08:18:00,43.1,31.0,30.22,NNE,23,6.0,11.0,63,0.00,,,0.00,0,weatherlink.com 1.10,2013-12-11 16:18:00,
2013-12-11 08:33:00,44.1,31.0,30.22,ESE,111,4.0,9.0,61,0.00,,,0.00,0,weatherlink.com 1.10,2013-12-11 16:33:00,
2013-12-11 08:48:00,45.1,31.0,30.23,East,87,2.0,9.0,59,0.00,,,0.00,0,weatherlink.com 1.10,2013-12-11 16:48:00,
2013-12-11 09:03:00,45.9,32.0,30.23,NE,35,2.0,9.0,58,0.00,,,0.00,0,weatherlink.com 1.10,2013-12-11 17:03:00,
2013-12-11 09:18:00,47.1,31.0,30.23,ENE,73,8.0,9.0,55,0.00,,,0.00,0,weatherlink.com 1.10,2013-12-11 17:18:00,
2013-12-11 09:33:00,48.2,31.0,30.23,NE,53,4.0,6.0,52,0.00,,,0.00,0,weatherlink.com 1.10,2013-12-11 17:33:00,
2013-12-11 09:48:00,48.4,31.0,30.24,ENE,69,8.0,9.0,52,0.00,,,0.00,0,weatherlink.com 1.10,2013-12-11 17:48:00,
2013-12-11 10:03:00,48.6,30.0,30.23,NW,313,3.0,12.0,49,0.00,,,0.00,0,weatherlink.com 1.10,2013-12-11 18:03:00,
2013-12-11 10:19:00,49.3,29.0,30.23,ESE,103,11.0,13.0,46,0.00,,,0.00,0,weatherlink.com 1.10,2013-12-11 18:19:00,
2013-12-11 10:34:00,50.2,29.0,30.23,ENE,67,5.0,11.0,44,0.00,,,0.00,0,weatherlink.com 1.10,2013-12-11 18:34:00,
2013-12-11 10:49:00,50.7,29.0,30.23,ESE,122,8.0,10.0,43,0.00,,,0.00,0,weatherlink.com 1.10,2013-12-11 18:49:00,
2013-12-11 11:04:00,51.6,28.0,30.22,West,279,3.0,11.0,40,0.00,,,0.00,0,weatherlink.com 1.10,2013-12-11 19:04:00,
2013-12-11 11:19:00,52.3,28.0,30.22,NNE,12,3.0,10.0,39,0.00,,,0.00,0,weatherlink.com 1.10,2013-12-11 19:19:00,
2013-12-11 11:34:00,52.9,27.0,30.21,NE,53,5.0,9.0,37,0.00,,,0.00,0,weatherlink.com 1.10,2013-12-11 19:34:00,
2013-12-11 11:49:00,53.2,26.0,30.21,NNE,32,9.0,10.0,35,0.00,,,0.00,0,weatherlink.com 1.10,2013-12-11 19:49:00,
2013-12-11 12:04:00,54.1,26.0,30.20,ESE,105,2.0,8.0,34,0.00,,,0.00,0,weatherlink.com 1.10,2013-12-11 20:04:00,
2013-12-11 12:19:00,54.6,27.0,30.20,NE,39,5.0,10.0,35,0.00,,,0.00,0,weatherlink.com 1.10,2013-12-11 20:19:00,
2013-12-11 12:34:00,55.5,30.0,30.19,SE,125,2.0,7.0,38,0.00,,,0.00,0,weatherlink.com 1.10,2013-12-11 20:34:00,
2013-12-11 12:49:00,55.4,30.0,30.19,East,98,3.0,9.0,38,0.00,,,0.00,0,weatherlink.com 1.10,2013-12-11 20:49:00,
2013-12-11 13:04:00,55.4,31.0,30.19,South,177,3.0,11.0,39,0.00,,,0.00,0,weatherlink.com 1.10,2013-12-11 21:04:00,
2013-12-11 13:19:00,55.7,32.0,30.19,SSE,159,3.0,9.0,40,0.00,,,0.00,0,weatherlink.com 1.10,2013-12-11 21:19:00,
2013-12-11 13:34:00,56.4,32.0,30.18,NE,51,3.0,8.0,39,0.00,,,0.00,0,weatherlink.com 1.10,2013-12-11 21:34:00,
2013-12-11 13:49:00,56.7,31.0,30.18,ESE,117,1.0,8.0,38,0.00,,,0.00,0,weatherlink.com 1.10,2013-12-11 21:49:00,
2013-12-11 14:04:00,56.7,30.0,30.18,SE,142,1.0,6.0,37,0.00,,,0.00,0,weatherlink.com 1.10,2013-12-11 22:04:00,
2013-12-11 14:19:00,56.7,30.0,30.17,NE,48,2.0,8.0,37,0.00,,,0.00,0,weatherlink.com 1.10,2013-12-11 22:19:00,
2013-12-11 14:34:00,56.2,30.0,30.17,NNE,19,5.0,10.0,37,0.00,,,0.00,0,weatherlink.com 1.10,2013-12-11 22:34:00,
2013-12-11 14:49:00,56.2,29.0,30.17,NNE,33,7.0,13.0,35,0.00,,,0.00,0,weatherlink.com 1.10,2013-12-11 22:49:00,
2013-12-11 15:04:00,55.9,29.0,30.17,NNE,17,3.0,12.0,36,0.00,,,0.00,0,weatherlink.com 1.10,2013-12-11 23:04:00,
2013-12-11 15:19:00,55.9,30.0,30.17,NE,47,4.0,8.0,37,0.00,,,0.00,0,weatherlink.com 1.10,2013-12-11 23:19:00,
2013-12-11 15:34:00,55.7,29.0,30.17,NNW,343,3.0,9.0,36,0.00,,,0.00,0,weatherlink.com 1.10,2013-12-11 23:34:00,
2013-12-11 15:49:00,55.7,29.0,30.17,West,265,2.0,7.0,36,0.00,,,0.00,0,weatherlink.com 1.10,2013-12-11 23:49:00,
2013-12-11 16:04:00,55.3,30.0,30.17,East,96,0.0,9.0,38,0.00,,,0.00,0,weatherlink.com 1.10,2013-12-12 00:04:00,
2013-12-11 16:19:00,54.7,29.0,30.17,WSW,254,1.0,7.0,38,0.00,,,0.00,0,weatherlink.com 1.10,2013-12-12 00:19:00,
2013-12-11 16:34:00,53.8,29.0,30.17,ESE,116,2.0,6.0,39,0.00,,,0.00,0,weatherlink.com 1.10,2013-12-12 00:34:00,
2013-12-11 16:49:00,52.6,29.0,30.17,ESE,121,1.0,10.0,40,0.00,,,0.00,0,weatherlink.com 1.10,2013-12-12 00:49:00,
2013-12-11 17:04:00,51.4,29.0,30.17,ENE,57,4.0,6.0,42,0.00,,,0.00,0,weatherlink.com 1.10,2013-12-12 01:04:00,
2013-12-11 17:19:00,50.9,29.0,30.17,ESE,113,2.0,7.0,43,0.00,,,0.00,0,weatherlink.com 1.10,2013-12-12 01:19:00,
2013-12-11 17:34:00,50.8,29.0,30.17,ENE,69,5.0,8.0,43,0.00,,,0.00,0,weatherlink.com 1.10,2013-12-12 01:34:00,
2013-12-11 17:49:00,50.6,29.0,30.18,West,275,1.0,5.0,43,0.00,,,0.00,0,weatherlink.com 1.10,2013-12-12 01:49:00,
2013-12-11 18:04:00,50.1,28.0,30.18,SSW,196,0.0,5.0,43,0.00,,,0.00,0,weatherlink.com 1.10,2013-12-12 02:04:00,
2013-12-11 18:19:00,50.0,28.0,30.18,SE,126,2.0,3.0,43,0.00,,,0.00,0,weatherlink.com 1.10,2013-12-12 02:19:00,
2013-12-11 18:34:00,50.2,28.0,30.18,SSW,195,0.0,8.0,43,0.00,,,0.00,0,weatherlink.com 1.10,2013-12-12 02:34:00,
2013-12-11 18:49:00,50.1,28.0,30.18,ESE,122,2.0,9.0,43,0.00,,,0.00,0,weatherlink.com 1.10,2013-12-12 02:49:00,
2013-12-11 19:04:00,50.0,28.0,30.18,ESE,113,0.0,9.0,42,0.00,,,0.00,0,weatherlink.com 1.10,2013-12-12 03:04:00,
2013-12-11 19:19:00,50.0,27.0,30.18,ESE,119,7.0,8.0,41,0.00,,,0.00,0,weatherlink.com 1.10,2013-12-12 03:19:00,
2013-12-11 19:34:00,50.1,28.0,30.18,SE,136,2.0,4.0,42,0.00,,,0.00,0,weatherlink.com 1.10,2013-12-12 03:34:00,
2013-12-11 19:49:00,49.9,27.0,30.19,East,98,0.0,10.0,42,0.00,,,0.00,0,weatherlink.com 1.10,2013-12-12 03:49:00,
2013-12-11 20:04:00,50.1,26.0,30.19,SSE,161,1.0,8.0,40,0.00,,,0.00,0,weatherlink.com 1.10,2013-12-12 04:04:00,
2013-12-11 20:19:00,50.4,27.0,30.19,NE,51,0.0,8.0,40,0.00,,,0.00,0,weatherlink.com 1.10,2013-12-12 04:19:00,
2013-12-11 20:34:00,49.9,27.0,30.19,SE,137,0.0,3.0,41,0.00,,,0.00,0,weatherlink.com 1.10,2013-12-12 04:34:00,
2013-12-11 20:49:00,49.1,27.0,30.19,ESE,116,0.0,1.0,43,0.00,,,0.00,0,weatherlink.com 1.10,2013-12-12 04:49:00,
2013-12-11 21:04:00,48.4,29.0,30.20,SE,136,0.0,1.0,47,0.00,,,0.00,0,weatherlink.com 1.10,2013-12-12 05:04:00,
2013-12-11 21:19:00,48.0,28.0,30.20,NE,47,0.0,1.0,47,0.00,,,0.00,0,weatherlink.com 1.10,2013-12-12 05:19:00,
2013-12-11 21:34:00,47.3,30.0,30.20,NE,49,0.0,1.0,52,0.00,,,0.00,0,weatherlink.com 1.10,2013-12-12 05:34:00,
2013-12-11 21:49:00,48.0,28.0,30.20,NNE,28,2.0,2.0,46,0.00,,,0.00,0,weatherlink.com 1.10,2013-12-12 05:49:00,
2013-12-11 22:04:00,47.3,28.0,30.20,NNE,24,0.0,1.0,48,0.00,,,0.00,0,weatherlink.com 1.10,2013-12-12 06:04:00,
2013-12-11 22:19:00,47.0,28.0,30.20,NE,39,0.0,2.0,48,0.00,,,0.00,0,weatherlink.com 1.10,2013-12-12 06:19:00,
2013-12-11 22:34:00,46.6,28.0,30.20,North,5,0.0,1.0,49,0.00,,,0.00,0,weatherlink.com 1.10,2013-12-12 06:34:00,
2013-12-11 22:49:00,46.2,28.0,30.20,NNE,26,0.0,1.0,50,0.00,,,0.00,0,weatherlink.com 1.10,2013-12-12 06:49:00,
2013-12-11 23:04:00,46.4,28.0,30.20,NNW,333,0.0,1.0,50,0.00,,,0.00,0,weatherlink.com 1.10,2013-12-12 07:04:00,
2013-12-11 23:19:00,46.5,30.0,30.20,NNW,329,0.0,3.0,54,0.00,,,0.00,0,weatherlink.com 1.10,2013-12-12 07:19:00,
2013-12-11 23:34:00,46.9,31.0,30.20,SE,140,1.0,2.0,54,0.00,,,0.00,0,weatherlink.com 1.10,2013-12-12 07:34:00,
2013-12-11 23:49:00,46.8,31.0,30.20,East,97,0.0,6.0,55,0.00,,,0.00,0,weatherlink.com 1.10,2013-12-12 07:49:00,